FW1671 Weather Reports


time (UTC)temp
C
wind
direction
speed
KPH
gust
KPH
rain 1hr
cm
rain 24hr
cm
rain mn
cm
humidity
%
barometer
mb
20260505201103 28 201 11.3 24.1 0.00 0.00 0.00 31 1013.4
20260505200604 28 182 6.4 19.3 0.00 0.00 0.00 31 1013.4
20260505200501 28 169 6.4 19.3 0.00 0.00 0.00 32 1013.5
20260505200006 29 253 8.0 22.5 0.00 0.00 0.00 32 1013.4
20260505195600 29 189 6.4 22.5 0.00 0.00 0.00 32 1013.4
20260505195100 28 192 4.8 20.9 0.00 0.00 0.00 32 1013.6
20260505194614 29 185 4.8 20.9 0.00 0.00 0.00 32 1013.7
20260505194100 28 151 11.3 20.9 0.00 0.00 0.00 32 1013.6
20260505193600 28 198 3.2 16.1 0.00 0.00 0.00 32 1013.7
20260505193100 29 152 6.4 16.1 0.00 0.00 0.00 32 1013.9
20260505192604 28 239 8.0 19.3 0.00 0.00 0.00 33 1014.0
20260505192100 28 264 4.8 20.9 0.00 0.00 0.00 32 1014.0
20260505191602 28 179 4.8 20.9 0.00 0.00 0.00 32 1014.1
20260505191101 28 139 3.2 16.1 0.00 0.00 0.00 33 1014.2
20260505190604 29 128 4.8 16.1 0.00 0.00 0.00 32 1014.3
20260505190502 29 159 4.8 22.5 0.00 0.00 0.00 32 1014.3
20260505190100 29 130 8.0 22.5 0.00 0.00 0.00 31 1014.5
20260505190003 29 190 8.0 22.5 0.00 0.00 0.00 31 1014.5
20260505185603 29 120 4.8 19.3 0.00 0.00 0.00 33 1014.6
20260505185100 29 116 6.4 19.3 0.00 0.00 0.00 32 1014.7
20260505184602 29 236 4.8 14.5 0.00 0.00 0.00 32 1014.9
20260505184101 29 171 6.4 14.5 0.00 0.00 0.00 33 1015.0
20260505183600 28 190 4.8 14.5 0.00 0.00 0.00 33 1015.1
20260505183109 28 200 3.2 16.1 0.00 0.00 0.00 33 1015.2
20260505182600 28 186 6.4 16.1 0.00 0.00 0.00 34 1015.2
20260505182100 27 200 8.0 19.3 0.00 0.00 0.00 35 1015.2
20260505181600 28 154 4.8 19.3 0.00 0.00 0.00 33 1015.2
20260505181101 28 188 8.0 16.1 0.00 0.00 0.00 32 1015.2
20260505180600 29 169 6.4 16.1 0.00 0.00 0.00 32 1015.2
20260505180104 29 151 8.0 17.7 0.00 0.00 0.00 35 1015.2
20260505180003 29 200 8.0 14.5 0.00 0.00 0.00 33 1015.1
20260505175600 29 196 6.4 12.9 0.00 0.00 0.00 33 1015.0
20260505175100 28 223 6.4 19.3 0.00 0.00 0.00 34 1015.0
20260505174601 28 140 8.0 19.3 0.00 0.00 0.00 34 1015.1
20260505174100 28 165 6.4 20.9 0.00 0.00 0.00 34 1015.0
20260505173601 28 131 3.2 16.1 0.00 0.00 0.00 37 1014.9
20260505173100 28 194 3.2 16.1 0.00 0.00 0.00 37 1015.0
20260505172600 28 104 8.0 24.1 0.00 0.00 0.00 36 1015.1
20260505172100 27 187 6.4 24.1 0.00 0.00 0.00 37 1015.2
20260505171600 28 238 8.0 17.7 0.00 0.00 0.00 35 1015.4
20260505171100 28 288 4.8 14.5 0.00 0.00 0.00 35 1015.4
20260505170600 28 130 6.4 14.5 0.00 0.00 0.00 35 1015.5
20260505170100 28 177 4.8 16.1 0.00 0.00 0.00 37 1015.6
20260505170003 28 171 6.4 16.1 0.00 0.00 0.00 36 1015.5
20260505165603 28 171 9.7 16.1 0.00 0.00 0.00 35 1015.6
20260505165100 27 152 4.8 16.1 0.00 0.00 0.00 38 1015.7
20260505164605 27 188 9.7 16.1 0.00 0.00 0.00 38 1015.9
20260505164100 27 181 4.8 12.9 0.00 0.00 0.00 38 1015.9
20260505163601 27 189 4.8 12.9 0.00 0.00 0.00 41 1015.9
20260505163102 26 240 4.8 16.1 0.00 0.00 0.00 40 1015.9
20260505162604 26 232 6.4 16.1 0.00 0.00 0.00 41 1016.0
20260505162100 27 236 3.2 9.7 0.00 0.00 0.00 43 1016.1
20260505161600 26 190 1.6 16.1 0.00 0.00 0.00 40 1016.0
20260505161100 27 219 8.0 19.3 0.00 0.00 0.00 42 1016.2
20260505160600 27 185 8.0 19.3 0.00 0.00 0.00 43 1016.3
20260505153116 26 154 4.8 16.1 0.00 0.00 0.00 49 1016.5
20260505152600 26 153 4.8 14.5 0.00 0.00 0.00 50 1016.5
20260505152101 25 187 4.8 11.3 0.00 0.00 0.00 52 1016.4
20260505151605 25 232 3.2 16.1 0.00 0.00 0.00 53 1016.5
20260505151100 25 258 6.4 16.1 0.00 0.00 0.00 52 1016.4
20260505150600 25 211 0.0 14.5 0.00 0.00 0.00 54 1016.4
20260505140600 22 273 4.8 22.5 0.00 0.00 0.00 59 1016.5
20260505140109 22 141 3.2 14.5 0.00 0.00 0.00 60 1016.3
20260505130104 17 252 3.2 14.5 0.00 0.00 0.00 81 1016.5
20260505124600 16 243 4.8 11.3 0.00 0.00 0.00 89 1016.2
20260505124103 15 213 1.6 8.0 0.00 0.00 0.00 92 1016.2
20260505123600 14 220 3.2 8.0 0.00 0.00 0.00 93 1016.2
20260505123107 13 209 1.6 6.4 0.00 0.00 0.00 94 1016.2
20260505122604 13 254 3.2 6.4 0.00 0.00 0.00 94 1016.3
20260505122502 13 291 0.0 6.4 0.00 0.00 0.00 93 1016.2
20260505122100 13 214 0.0 6.4 0.00 0.00 0.00 94 1016.2
20260505121600 12 33 0.0 1.6 0.00 0.00 0.00 93 1016.2
20260505121100 12 32 0.0 1.6 0.00 0.00 0.00 93 1016.2
20260505120559 12 32 0.0 3.2 0.00 0.00 0.00 93 1016.2
20260505120001 11 91 0.0 1.6 0.00 0.00 0.00 93 1016.1
20260505115604 11 92 0.0 1.6 0.00 0.00 0.00 93 1016.1
20260505115059 11 91 0.0 3.2 0.00 0.00 0.00 93 1016.1
20260505114559 11 91 0.0 3.2 0.00 0.00 0.00 92 1016.0
20260505114103 11 65 0.0 0.0 0.00 0.00 0.00 92 1016.1
20260505113600 10 65 0.0 3.2 0.00 0.00 0.00 92 1016.1
20260505113102 10 65 0.0 3.2 0.00 0.00 0.00 92 1016.0
20260505112558 10 213 0.0 1.6 0.00 0.00 0.00 92 1016.0
20260505112058 10 213 0.0 0.0 0.00 0.00 0.00 91 1015.9
20260505111559 10 213 0.0 0.0 0.00 0.00 0.00 91 1015.9
20260505111100 10 213 0.0 0.0 0.00 0.00 0.00 91 1016.0
20260505110558 10 213 0.0 0.0 0.00 0.00 0.00 91 1016.1
20260505110105 10 213 0.0 0.0 0.00 0.00 0.00 91 1016.0
20260505102102 10 213 0.0 0.0 0.00 0.00 0.00 90 1015.5
20260505101603 10 213 0.0 0.0 0.00 0.00 0.00 90 1015.4
20260505101058 10 213 0.0 0.0 0.00 0.00 0.00 90 1015.5
20260505100558 10 213 0.0 0.0 0.00 0.00 0.00 90 1015.4
20260505100058 10 213 0.0 0.0 0.00 0.00 0.00 89 1015.4
20260505095559 10 213 0.0 0.0 0.00 0.00 0.00 90 1015.4
20260505095100 10 213 0.0 0.0 0.00 0.00 0.00 89 1015.3
20260505094606 10 213 0.0 1.6 0.00 0.00 0.00 89 1015.4
20260505094058 10 213 0.0 1.6 0.00 0.00 0.00 89 1015.3
20260505094001 10 213 0.0 1.6 0.00 0.00 0.00 89 1015.3
20260505093558 10 213 0.0 0.0 0.00 0.00 0.00 89 1015.3
20260505093058 10 213 0.0 0.0 0.00 0.00 0.00 89 1015.2
20260505092558 10 213 0.0 0.0 0.00 0.00 0.00 89 1015.3
20260505092058 10 213 0.0 0.0 0.00 0.00 0.00 88 1015.2
20260505091602 11 213 0.0 0.0 0.00 0.00 0.00 88 1015.3
20260505091057 11 213 0.0 0.0 0.00 0.00 0.00 88 1015.3
20260505090557 11 213 0.0 0.0 0.00 0.00 0.00 88 1015.3
20260505090101 11 213 0.0 0.0 0.00 0.00 0.00 88 1015.2
20260505085603 11 213 0.0 0.0 0.00 0.00 0.00 88 1015.3
20260505085105 11 213 0.0 0.0 0.00 0.00 0.00 87 1015.2
20260505084558 11 213 0.0 0.0 0.00 0.00 0.00 87 1015.1
20260505084058 11 213 0.0 0.0 0.00 0.00 0.00 87 1015.2
20260505083558 11 213 0.0 0.0 0.00 0.00 0.00 87 1015.1
20260505083100 11 213 0.0 0.0 0.00 0.00 0.00 87 1015.2
20260505082558 11 213 0.0 0.0 0.00 0.00 0.00 87 1015.1
20260505082058 11 213 0.0 0.0 0.00 0.00 0.00 86 1015.1
20260505081603 11 213 0.0 0.0 0.00 0.00 0.00 86 1015.1
20260505081058 11 213 0.0 0.0 0.00 0.00 0.00 86 1014.9
20260505080558 11 213 0.0 0.0 0.00 0.00 0.00 86 1014.9
20260505080058 12 213 0.0 0.0 0.00 0.00 0.00 86 1014.9
20260505075600 12 213 0.0 0.0 0.00 0.00 0.00 85 1014.8
20260505075059 12 213 0.0 0.0 0.00 0.00 0.00 85 1014.8
20260505074611 12 213 0.0 0.0 0.00 0.00 0.00 85 1014.8
20260505074058 12 213 0.0 1.6 0.00 0.00 0.00 84 1014.7
20260505073558 12 213 0.0 1.6 0.00 0.00 0.00 84 1014.8
20260505073109 12 213 0.0 0.0 0.00 0.00 0.00 84 1014.8
20260505072559 12 213 0.0 0.0 0.00 0.00 0.00 83 1014.9
20260505072057 12 213 0.0 0.0 0.00 0.00 0.00 83 1014.8
20260505071558 12 213 0.0 0.0 0.00 0.00 0.00 82 1014.8
20260505071058 12 213 0.0 0.0 0.00 0.00 0.00 82 1014.8
20260505070558 12 213 0.0 0.0 0.00 0.00 0.00 81 1014.8
20260505070058 13 213 0.0 0.0 0.00 0.00 0.00 81 1014.8
20260505065557 13 213 0.0 0.0 0.00 0.00 0.00 81 1014.8
20260505065057 13 213 0.0 0.0 0.00 0.00 0.00 80 1014.9
20260505064604 13 213 0.0 0.0 0.00 0.00 0.00 80 1014.8
20260505064057 13 213 0.0 0.0 0.00 0.00 0.00 79 1014.9
20260505063600 13 213 0.0 0.0 0.00 0.00 0.00 79 1014.9
20260505063100 14 213 0.0 0.0 0.00 0.00 0.00 78 1014.9
20260505062558 14 213 0.0 1.6 0.00 0.00 0.00 77 1015.0
20260505062057 15 213 0.0 3.2 0.00 0.00 0.00 75 1015.1
20260505061625 15 213 0.0 3.2 0.00 0.00 0.00 74 1015.1
20260505061057 15 213 0.0 1.6 0.00 0.00 0.00 73 1015.1
20260505060600 15 213 0.0 3.2 0.00 0.00 0.00 72 1015.1
20260505060506 15 213 0.0 3.2 0.00 0.00 0.00 72 1015.1
20260505060058 16 213 0.0 4.8 0.00 0.00 0.00 70 1015.1
20260505055557 16 256 0.0 4.8 0.00 0.00 0.00 70 1015.1
20260505055057 16 198 1.6 4.8 0.00 0.00 0.00 68 1015.2
20260505054621 16 199 0.0 6.4 0.00 0.00 0.00 68 1015.2
20260505054058 16 232 3.2 6.4 0.00 0.00 0.00 68 1015.2
20260505053557 16 182 0.0 6.4 0.00 0.00 0.00 67 1015.2
20260505053057 16 242 0.0 6.4 0.00 0.00 0.00 67 1015.2
20260505052557 16 194 3.2 8.0 0.00 0.00 0.00 67 1015.2
20260505052058 16 180 1.6 8.0 0.00 0.00 0.00 67 1015.1
20260505051559 16 197 3.2 8.0 0.00 0.00 0.00 67 1015.2
20260505051057 16 198 3.2 9.7 0.00 0.00 0.00 67 1015.3
20260505050557 16 213 3.2 9.7 0.00 0.00 0.00 66 1015.3
20260505041601 15 206 1.6 4.8 0.00 0.00 0.00 72 1015.5
20260505041059 15 206 0.0 4.8 0.00 0.00 0.00 72 1015.4
20260505040600 15 206 0.0 6.4 0.00 0.00 0.00 72 1015.5
20260505040101 15 251 0.0 1.6 0.00 0.00 0.00 73 1015.5
20260505040004 15 251 0.0 1.6 0.00 0.00 0.00 73 1015.5
20260505035559 15 251 0.0 6.4 0.00 0.00 0.00 73 1015.5
20260505035100 15 251 0.0 6.4 0.00 0.00 0.00 73 1015.5
20260505034559 15 203 0.0 1.6 0.00 0.00 0.00 74 1015.6
20260505034059 15 203 0.0 1.6 0.00 0.00 0.00 73 1015.6
20260505033600 16 203 0.0 3.2 0.00 0.00 0.00 72 1015.7
20260505033100 16 203 0.0 3.2 0.00 0.00 0.00 72 1015.7
20260505032600 16 203 0.0 3.2 0.00 0.00 0.00 71 1015.6
20260505032059 16 203 0.0 3.2 0.00 0.00 0.00 71 1015.6
20260505031615 16 203 0.0 3.2 0.00 0.00 0.00 70 1015.6
20260505031059 16 203 0.0 3.2 0.00 0.00 0.00 70 1015.6
20260505030559 16 203 0.0 3.2 0.00 0.00 0.00 69 1015.5
20260505030002 17 181 0.0 3.2 0.00 0.00 0.00 68 1015.6
20260505025601 17 181 0.0 4.8 0.00 0.00 0.00 67 1015.6
20260505025059 17 181 1.6 4.8 0.00 0.00 0.00 67 1015.6
20260505024610 17 246 0.0 1.6 0.00 0.00 0.00 66 1015.6
20260505024510 17 246 0.0 1.6 0.00 0.00 0.00 66 1015.6
20260505024059 17 246 0.0 1.6 0.00 0.00 0.00 66 1015.5
20260505023559 17 246 0.0 1.6 0.00 0.00 0.00 65 1015.5
20260505023059 17 246 0.0 3.2 0.00 0.00 0.00 63 1015.5
20260505022559 18 246 0.0 1.6 0.00 0.00 0.00 63 1015.5
20260505022100 18 246 0.0 1.6 0.00 0.00 0.00 62 1015.4
20260505021613 18 246 0.0 4.8 0.00 0.00 0.00 61 1015.4
20260505021004 18 246 0.0 6.4 0.00 0.00 0.00 60 1015.4
20260505020559 19 246 0.0 6.4 0.00 0.00 0.00 59 1015.3
20260505020002 19 186 0.0 3.2 0.00 0.00 0.00 59 1015.2
20260505015559 19 186 0.0 3.2 0.00 0.00 0.00 57 1015.2
20260505015100 20 186 0.0 11.3 0.00 0.00 0.00 56 1015.1
20260505014600 19 186 4.8 16.1 0.00 0.00 0.00 56 1015.0
20260505014059 19 161 4.8 16.1 0.00 0.00 0.00 56 1014.9
20260505013602 19 168 6.4 12.9 0.00 0.00 0.00 56 1014.8
20260505013101 19 200 3.2 16.1 0.00 0.00 0.00 56 1014.7
20260505012559 18 159 1.6 11.3 0.00 0.00 0.00 57 1014.7
20260505012102 18 176 3.2 12.9 0.00 0.00 0.00 56 1014.7
20260505012002 18 174 4.8 12.9 0.00 0.00 0.00 56 1014.7
20260505011600 18 248 3.2 8.0 0.00 0.00 0.00 56 1014.6
20260505011100 18 184 0.0 3.2 0.00 0.00 0.00 57 1014.5
20260505010559 18 184 0.0 3.2 0.00 0.00 0.00 58 1014.5
20260505010100 18 184 0.0 0.0 0.00 0.00 0.00 57 1014.3
20260505010002 18 184 0.0 0.0 0.00 0.00 0.00 57 1014.3
20260505005559 18 184 0.0 0.0 0.00 0.00 0.00 56 1014.2
20260505005059 19 184 0.0 0.0 0.00 0.00 0.00 56 1014.2
20260505004605 19 184 0.0 0.0 0.00 0.00 0.00 55 1014.1
20260505004059 20 184 0.0 0.0 0.00 0.00 0.00 53 1014.0
20260505003559 20 184 0.0 0.0 0.00 0.00 0.00 52 1013.9
20260505003059 20 184 0.0 0.0 0.00 0.00 0.00 52 1013.9
20260505002600 20 184 0.0 0.0 0.00 0.00 0.00 51 1013.8
20260505002059 21 184 0.0 0.0 0.00 0.00 0.00 51 1013.7
20260505001559 21 184 0.0 0.0 0.00 0.00 0.00 49 1013.6
20260505001059 21 184 0.0 0.0 0.00 0.00 0.00 48 1013.6
20260505001002 22 184 0.0 0.0 0.00 0.00 0.00 48 1013.6
20260505000559 22 184 0.0 0.0 0.00 0.00 0.00 46 1013.6
20260505000059 22 184 0.0 0.0 0.00 0.00 0.00 44 1013.5
20260505000007 22 184 0.0 0.0 0.00 0.00 0.00 44 1013.5
20260504235559 23 184 0.0 1.6 0.00 0.00 0.00 43 1013.5
20260504235100 23 184 0.0 1.6 0.00 0.00 0.00 41 1013.4
20260504234600 23 184 0.0 3.2 0.00 0.00 0.00 35 1013.4
20260504234100 24 184 0.0 3.2 0.00 0.00 0.00 34 1013.3
20260504233559 24 184 0.0 4.8 0.00 0.00 0.00 34 1013.4
20260504233102 25 184 1.6 8.0 0.00 0.00 0.00 32 1013.4
20260504232559 25 180 1.6 11.3 0.00 0.00 0.00 31 1013.4
20260504232100 25 190 4.8 11.3 0.00 0.00 0.00 31 1013.4
20260504231559 25 196 4.8 11.3 0.00 0.00 0.00 31 1013.4
20260504231059 26 188 1.6 9.7 0.00 0.00 0.00 31 1013.5
20260504230600 26 183 3.2 12.9 0.00 0.00 0.00 30 1013.5
20260504230101 26 199 4.8 14.5 0.00 0.00 0.00 29 1013.5
20260504230002 26 185 6.4 14.5 0.00 0.00 0.00 29 1013.5
20260504225559 26 192 6.4 16.1 0.00 0.00 0.00 29 1013.5
20260504225059 26 190 4.8 16.1 0.00 0.00 0.00 29 1013.5
20260504224559 26 192 6.4 16.1 0.00 0.00 0.00 28 1013.5
20260504224059 26 190 3.2 16.1 0.00 0.00 0.00 28 1013.5
20260504223559 26 148 8.0 16.1 0.00 0.00 0.00 27 1013.5
20260504223103 27 196 3.2 11.3 0.00 0.00 0.00 29 1013.4
20260504222600 27 195 6.4 17.7 0.00 0.00 0.00 28 1013.4
20260504222059 27 217 9.7 17.7 0.00 0.00 0.00 27 1013.4
20260504221608 27 211 8.0 17.7 0.00 0.00 0.00 27 1013.4
20260504221059 27 180 8.0 19.3 0.00 0.00 0.00 28 1013.4
20260504220600 27 196 1.6 14.5 0.00 0.00 0.00 29 1013.3
20260504220135 27 167 6.4 14.5 0.00 0.00 0.00 28 1013.4
20260504220001 27 201 6.4 11.3 0.00 0.00 0.00 28 1013.4
20260504215559 27 177 3.2 12.9 0.00 0.00 0.00 27 1013.4
20260504215101 27 142 3.2 17.7 0.00 0.00 0.00 26 1013.3
20260504214559 27 190 8.0 17.7 0.00 0.00 0.00 25 1013.3
20260504214059 27 246 8.0 19.3 0.00 0.00 0.00 24 1013.3
20260504213601 27 232 6.4 19.3 0.00 0.00 0.00 25 1013.2
20260504213123 28 234 8.0 16.1 0.00 0.00 0.00 25 1013.3
20260504212602 28 232 4.8 14.5 0.00 0.00 0.00 25 1013.3
20260504212100 28 198 6.4 17.7 0.00 0.00 0.00 24 1013.3
20260504211559 28 200 4.8 17.7 0.00 0.00 0.00 25 1013.2
20260504211059 28 94 3.2 11.3 0.00 0.00 0.00 26 1013.3
20260504210559 28 167 4.8 14.5 0.00 0.00 0.00 26 1013.3
20260504210002 28 159 4.8 14.5 0.00 0.00 0.00 27 1013.2
20260504205558 28 138 3.2 11.3 0.00 0.00 0.00 26 1013.2
20260504205059 28 192 1.6 14.5 0.00 0.00 0.00 24 1013.3
20260504204618 28 217 6.4 14.5 0.00 0.00 0.00 25 1013.4
20260504204059 28 309 3.2 17.7 0.00 0.00 0.00 24 1013.3
20260504203603 28 213 6.4 20.9 0.00 0.00 0.00 23 1013.4
20260504203059 28 221 8.0 20.9 0.00 0.00 0.00 23 1013.4
20260504202559 29 254 3.2 14.5 0.00 0.00 0.00 24 1013.4
20260504202100 28 189 3.2 8.0 0.00 0.00 0.00 25 1013.4
20260504201609 28 232 4.8 14.5 0.00 0.00 0.00 24 1013.5